Погода в Гриноке

Великобритания     55°56′45″N   4°45′37″W
темп.,
°C
ветер,
м/с
пор.,
м/с
влажн.,
%
обл.,
%
осадки,
мм/ч
давл.,
гПа
погр.,
м
4 марта, чт
чт400:00+2св2684100 0.0 1029423
03:00+2ссв2981100 0.0 1028547
06:00+1с228697 0.0 102831
09:00+3ссв1380100 0.0 1030186
12:00+4в2687100 0.1 1031657
15:00+4в576991 0.1 1031839
18:000в387946 0.1 1031299
21:00−2всв128512 0.0 103347
5 марта, пт
пт500:00−2св11856 0.0 103425
03:00−2св118341 0.0 103323
06:00−3св118432 0.0 103422
09:000всв11684 0.0 1034234
12:00+4юв225528 0.0 1035861
15:00+4ю225380 0.0 1033874
18:00−1юз117544 0.0 103321
21:00−2юз11820 0.0 103421
6 марта, сб
сб600:00−2ю119016 0.0 103323
03:00−2вюв119199 0.0 103244
06:000в1184100 0.0 103294
09:00+2ююв028099 0.0 1030266
12:00+5ююз467399 0.0 1030813
15:00+4юз3687100 0.1 1028518
18:00+2ю1397100 0.3 1027103
21:00+2ююв1299100 0.2 102657
7 марта, вс
вс700:00+2юв1199100 0.4 102534
03:00+2вюв0199100 0.0 102322
06:00+3юв0099100 0.2 102222
09:00+4зюз009898 0.1 102246
12:00+7ююз128795 0.1 1021362
15:00+7ююз1285100 0.1 1020383
18:00+4ююз129694 0.2 102044
21:00+3ю129892 0.0 102036
8 марта, пн
пн800:00+4ююв119694 0.0 101923
03:00+2вюв119754 0.0 101722
06:00+3в129970 0.2 101696
09:00+3в1298100 1.0 101598
12:00+6ю3898100 1.9 1013425
15:00+6ююз3997100 0.6 1012482
18:00+6юз2799100 1.4 1010336
21:00+6юз31096100 0.2 1010721